Regional Weather Roundup
Issued by NWS Charleston, SC

Current Version | Previous Version | Graphics & Text | Print | Product List | Glossary On
Versions: 1 2 3 4 5 6 7 8 9 10 11 12 13 14 15 16 17 18 19 20 21 22 23 24 25 26 27 28 29 30 31 32 33 34 35 36 37 38 39 40 41 42 43 44 45 46 47 48 49 50
000
ASUS42 KCHS 310328
RWRCHS

REGIONAL WEATHER ROUNDUP
NATIONAL WEATHER SERVICE CHARLESTON SC
1100 PM EDT TUE AUG 30 2016

NOTE: "FAIR" INDICATES FEW OR NO CLOUDS BELOW 12,000 FEET WITH NO
SIGNIFICANT WEATHER AND/OR OBSTRUCTIONS TO VISIBILITY.

NOT ALL STATIONS ARE QUALITY CONTROLLED. USE DATA WITH CAUTION...
ESPECIALLY DEWPOINT OBSERVATIONS.

SCZ027-030-031-034>040-042>050-310400-
...SOUTHEAST SOUTH CAROLINA...

CITY           SKY/WX    TMP DP  RH WIND       PRES   REMARKS
N CHARLESTON   PTCLDY    77  71  82 CALM      30.00S
WATERFRONT PRK   N/A     83  76  79 SE8       29.99R HX  91
MOUNT PLEASANT FAIR      73  73 100 CALM      30.01F
JOHNS ISLAND   FAIR      75  73  94 CALM      30.01S
PINOPOLIS        N/A     79  73  83 CALM      29.95R
MONCKS CORNER  FAIR      72  70  94 CALM      30.01F FOG
SUMMERVILLE    FAIR      73  73 100 CALM      30.02F
BEAUFORT MCAS  PTCLDY    79  74  84 CALM      30.00S
BEAUFORT ARPT  FAIR      77  73  88 E3        29.99F
HILTON HEAD IS PTCLDY    81  75  83 VRB6      30.00F
WALTERBORO     CLEAR     75  75 100 CALM      30.02S
ALLENDALE      FAIR      77  73  88 CALM      30.00S

...SOUTHERN MIDLANDS AND PEE DEE...

CITY           SKY/WX    TMP DP  RH WIND       PRES   REMARKS
GEORGETOWN     FAIR      72  72 100 CALM      30.03S
KINGSTREE      FAIR      70  64  83 CALM      30.02R
ORANGEBURG     CLEAR     75  71  87 CALM      30.02R
BARNWELL       NOT AVBL
AIKEN          FAIR      73  68  83 SE5       30.06S
MANNING        FAIR      72  68  88 CALM      30.02S
COLUMBIA       PTCLDY    82  66  58 CALM      30.01R
SUMTER         CLEAR     75  67  74 CALM      30.00R
FLORENCE       PTCLDY    77  64  64 CALM      30.02S
MYRTLE BEACH   PTCLDY    82  70  65 S3        30.04R
N MYRTLE BEACH MOCLDY    82  76  81 CALM      30.01S

$$

GAZ063-065-086>088-099>101-113>116-118-119-134>141-150-310400-
...SOUTHEAST GEORGIA...

CITY           SKY/WX    TMP DP  RH WIND       PRES   REMARKS
SAVANNAH ARPT  PTCLDY    78  73  84 NE6       29.99F
HUNTER AAF     CLEAR     80  78  96 E9        29.96F
FORT STEWART   PTCLDY    76  72  87 NE3       29.96F
STATESBORO     CLEAR     75  73  92 CALM      30.00S
SYLVANIA       NOT AVBL
CLAXTON        FAIR      74  74  98 CALM      30.00S

...CSRA...CENTRAL AND FAR SOUTHEAST GEORGIA...

CITY           SKY/WX    TMP DP  RH WIND       PRES   REMARKS
THOMSON        CLEAR     77  75  93 CALM      30.06S
AUGUSTA-BUSH   CLEAR     74  73  97 CALM      30.01R
AUGUSTA-DANIEL CLEAR     80  72  76 SE3       30.03R
SWAINSBORO     FAIR      77  72  83 CALM      30.02S
VIDALIA        CLEAR     77  73  88 E3        30.00S
EASTMAN        FAIR      77  76  98 CALM      30.02S
HAZLEHURST     FAIR      80  74  84 CALM      29.98S
ALMA           CLEAR     76  72  87 E3        29.97F
WAYCROSS         N/A     79  75  89 E5        29.97S
JESUP          CLOUDY    77  77 100 NE5       29.98S
BAXLEY         FAIR      77  77 100 E3        29.98S
BRUNSWICK      CLOUDY    77  77 100 NE5       29.97F
SAINT SIMONS   LGT RAIN  76  74  93 E15       29.96F

$$

SCZ027-028-034-036>038-045-046-048>050-GAZ119-141-310400-
...LAKE AND SUPPLEMENTAL COASTAL OBSERVATIONS...

STATION/POSITION TIME  TEMP    WIND        PRES    WAVE   SWELL
                       AIR SEA DIR/SP/G            HT/PER HT/PER/DIR
                 (UTC) (F)     (DEG/KT/KT) (MB)    (FT/S) (FT/S/D)
WINYAH BAY       0200   81        CALM     1015.0
LAKE MURRAY      0200   84     100/  3/  4 1015.6R
ACE BASIN NERRS  0200   78        CALM     1016.0S
FORT PULASKI     0300   82 85  110/  9/ 12 1015.9F
SAPELO ISLAND    0300   76     110/  9     1015.0S

$$

ANZ835-935-AMZ111-154-330-350-352-354-370-450-454-472-310400-
...C-MAN AND BUOY OBSERVATIONS...

STATION/POSITION TIME  TEMP    WIND        PRES    WAVE   SWELL
                       AIR SEA DIR/SP/G            HT/PER HT/PER/DIR
                 (UTC) (F)     (DEG/KT/KT) (MB)    (FT/S) (FT/S/D)
BUOY 41004       0250   83 84  110/  6/ 10 1015.6R   4/11   3/100/11
BUOY 41008       0250   79 85   90/ 23/ 29 1014.5S   4/ 4   2/ 80/11
FOLLY BEACH CMAN 0300   82     130/  9/ 10 1016.3R
CAPERS NEARSHORE 0308   82 83  130/  8/ 12 1016.0R
FRIPP NEARSHORE  0308   83 85  120/ 14/ 17 1014.9F


STATION/POSITION TIME  TEMP    WIND        PRES    WAVE   SWELL
                       AIR SEA DIR/SP/G            HT/PER HT/PER/DIR
                 (UTC) (F)     (DEG/KT/KT) (MB)    (FT/S) (FT/S/D)
5E ST. MARYS GA  0301      85                N/A     6/ 6   2/100/11
FRYING PAN BUOY  0300   83 85  110/  6/ 10 1015.9R
BUOY 41025       0250   81 84   60/ 10/ 12 1014.9R   5/11   5/110/11
CAPE LOOKOUT NC  0300   81      30/  9/ 12 1015.5S
BUOY 41002       0250   83 84  190/ 12/ 14 1016.3R   4/12   3/ 20/12
BUOY 41010       NOT AVBL
ST AUGUSTINE FL  0300   79 83  190/  6/  7 1013.4R


$$




USA.gov is the U.S. government's official web portal to all federal, state and local government web resources and services.